DW9945 Weather Reports


Display with metric or nautical units.
time (UTC)temp
F
wind
direction
speed
MPH
gust
MPH
rain 1hr
in
rain 24hr
in
rain mn
in
humidity
%
barometer
mb
20260508220008 53 359 5.0 9.0 0.00 0.14 0.00 86 1011.6
20260508215507 53 5 5.0 9.0 0.00 0.14 0.14 86 1011.6
20260508215007 53 358 6.0 8.0 0.00 0.14 0.14 87 1011.7
20260508214507 52 351 6.0 9.0 0.00 0.14 0.14 87 1011.8
20260508213508 52 351 5.0 6.0 0.00 0.14 0.14 88 1011.8
20260508213007 52 354 5.0 6.0 0.00 0.14 0.14 88 1011.8
20260508212507 52 352 4.0 6.0 0.00 0.14 0.14 88 1011.8
20260508212007 52 357 5.0 7.0 0.00 0.14 0.14 87 1011.8
20260508211507 52 8 4.0 6.0 0.00 0.14 0.14 87 1011.8
20260508211007 52 349 5.0 8.0 0.00 0.14 0.14 87 1011.7
20260508210507 52 352 3.0 5.0 0.00 0.14 0.14 86 1011.7
20260508205507 53 16 4.0 6.0 0.00 0.14 0.14 86 1011.6
20260508204507 53 7 3.0 5.0 0.00 0.14 0.14 85 1011.6
20260508203507 53 34 3.0 5.0 0.00 0.14 0.14 84 1011.6
20260508203008 53 22 3.0 5.0 0.00 0.14 0.14 84 1011.6
20260508202507 53 22 3.0 7.0 0.00 0.14 0.14 83 1011.6
20260508202007 53 6 5.0 7.0 0.00 0.14 0.14 82 1011.3
20260508201007 54 19 3.0 3.0 0.00 0.14 0.14 80 1011.3
20260508200507 54 19 2.0 5.0 0.00 0.14 0.14 80 1011.3
20260508200007 54 30 2.0 3.0 0.00 0.14 0.14 80 1011.3
20260508195507 54 34 2.0 5.0 0.00 0.14 0.14 80 1011.2
20260508195007 54 56 2.0 3.0 0.00 0.14 0.14 80 1011.2
20260508194507 55 25 2.0 3.0 0.00 0.14 0.14 79 1011.2
20260508194007 55 25 1.0 3.0 0.00 0.14 0.14 79 1011.2
20260508193507 55 28 2.0 3.0 0.00 0.14 0.14 79 1011.2
20260508193007 55 32 1.0 3.0 0.00 0.14 0.14 80 1011.1
20260508192507 55 20 1.0 3.0 0.00 0.14 0.14 79 1011.1
20260508192007 56 19 2.0 3.0 0.00 0.14 0.14 78 1010.9
20260508191507 57 19 2.0 3.0 0.00 0.14 0.14 76 1010.9
20260508190507 58 28 0.0 0.0 0.00 0.14 0.14 73 1010.7
20260508185507 59 28 1.0 2.0 0.00 0.14 0.14 70 1010.7
20260508185007 60 28 1.0 3.0 0.00 0.14 0.14 69 1010.7
20260508184508 60 22 1.0 3.0 0.00 0.14 0.14 68 1010.7
20260508184010 61 5 2.0 3.0 0.00 0.14 0.14 66 1010.6
20260508183507 61 5 2.0 3.0 0.00 0.14 0.14 65 1010.6
20260508183007 61 5 2.0 3.0 0.00 0.14 0.14 64 1010.5
20260508182507 61 5 2.0 3.0 0.00 0.14 0.14 63 1010.5
20260508181507 61 5 3.0 5.0 0.00 0.14 0.14 62 1010.4
20260508180007 61 346 3.0 5.0 0.00 0.14 0.14 62 1010.5
20260508175507 61 355 2.0 5.0 0.00 0.14 0.14 64 1010.5
20260508175007 61 12 4.0 7.0 0.00 0.14 0.14 64 1010.5
20260508174507 60 10 3.0 5.0 0.00 0.14 0.14 64 1010.6
20260508174006 60 10 3.0 7.0 0.00 0.14 0.14 65 1010.7
20260508173507 60 0 3.0 8.0 0.00 0.14 0.14 67 1010.7
20260508172007 61 352 7.0 10.0 0.00 0.14 0.14 67 1010.5
20260508171507 61 353 7.0 12.0 0.00 0.14 0.14 67 1010.6
20260508170507 62 355 4.0 6.0 0.00 0.14 0.14 64 1010.6
20260508170008 61 324 3.0 3.0 0.00 0.14 0.14 63 1010.6
20260508165507 61 292 4.0 7.0 0.00 0.14 0.14 63 1010.6
20260508165010 62 344 7.0 10.0 0.00 0.14 0.14 65 1010.6
20260508164507 61 315 6.0 12.0 0.00 0.14 0.14 67 1010.6
20260508164007 61 340 6.0 9.0 0.00 0.14 0.14 66 1010.7
20260508163507 61 301 5.0 9.0 0.00 0.14 0.14 64 1010.7
20260508163007 61 316 6.0 10.0 0.00 0.14 0.14 65 1010.8
20260508162507 61 321 6.0 10.0 0.00 0.14 0.14 68 1010.8
20260508161506 60 318 9.0 12.0 0.00 0.14 0.14 69 1010.8
20260508161006 60 341 10.0 14.0 0.00 0.14 0.14 71 1010.7
20260508160507 60 319 12.0 16.0 0.00 0.14 0.14 70 1010.8
20260508155506 61 291 12.0 17.0 0.00 0.15 0.14 72 1010.8
20260508154507 63 281 7.0 17.0 0.00 0.16 0.14 62 1010.9
20260508154006 63 228 6.0 12.0 0.00 0.17 0.14 60 1010.8
20260508153007 62 196 8.0 14.0 0.00 0.20 0.14 57 1010.8
20260508152507 62 216 9.0 15.0 0.00 0.20 0.14 58 1010.9
20260508152007 62 201 10.0 14.0 0.00 0.20 0.14 60 1010.8
20260508151507 62 197 7.0 12.0 0.00 0.21 0.14 61 1010.9
20260508151007 62 200 6.0 10.0 0.00 0.21 0.14 61 1010.9
20260508150507 61 212 6.0 10.0 0.00 0.21 0.14 62 1011.0
20260508145506 61 212 3.0 12.0 0.00 0.21 0.14 63 1011.0
20260508145006 61 180 5.0 10.0 0.00 0.21 0.14 62 1011.2
20260508144506 61 228 6.0 14.0 0.00 0.21 0.14 62 1011.2
20260508144006 61 168 5.0 12.0 0.00 0.21 0.14 63 1011.2
20260508143506 61 200 6.0 12.0 0.00 0.22 0.14 62 1011.3
20260508142507 61 200 4.0 9.0 0.00 0.24 0.14 63 1011.4
20260508142007 60 207 6.0 10.0 0.00 0.24 0.14 65 1011.3
20260508141507 60 157 3.0 9.0 0.00 0.24 0.14 66 1011.4
20260508141007 60 131 3.0 7.0 0.00 0.24 0.14 66 1011.4
20260508140007 60 207 3.0 7.0 0.00 0.24 0.14 68 1011.7
20260508135506 59 197 3.0 10.0 0.00 0.25 0.14 67 1011.8
20260508134506 59 107 5.0 8.0 0.01 0.27 0.14 69 1011.8
20260508134006 59 120 1.0 5.0 0.02 0.33 0.14 73 1011.7
20260508133506 58 273 1.0 3.0 0.04 0.35 0.14 73 1011.8
20260508133006 57 124 0.0 3.0 0.09 0.38 0.14 73 1011.8
20260508132506 57 178 2.0 5.0 0.09 0.39 0.14 75 1011.8
20260508131507 56 246 3.0 6.0 0.09 0.40 0.14 81 1011.8
20260508130507 55 315 6.0 10.0 0.09 0.40 0.14 80 1011.9
20260508130007 55 318 8.0 12.0 0.09 0.40 0.14 83 1011.9
20260508124506 53 325 9.0 12.0 0.09 0.39 0.13 84 1011.9
20260508124006 54 318 5.0 6.0 0.08 0.39 0.13 83 1012.3
20260508123506 54 322 0.0 1.0 0.06 0.36 0.10 83 1012.8
20260508123007 54 330 2.0 5.0 0.00 0.31 0.05 83 1012.8
20260508122507 54 340 6.0 8.0 0.00 0.31 0.05 81 1012.5
20260508122006 54 327 7.0 9.0 0.00 0.31 0.05 80 1012.7
20260508121506 54 340 7.0 12.0 0.00 0.31 0.05 81 1012.5
20260508120506 54 328 6.0 9.0 0.00 0.31 0.05 84 1012.6
20260508120007 54 333 6.0 8.0 0.01 0.31 0.05 81 1012.6
20260508115506 54 324 5.0 6.0 0.02 0.31 0.05 80 1012.5
20260508115006 54 318 5.0 8.0 0.02 0.31 0.05 83 1012.6
20260508114507 53 332 4.0 8.0 0.02 0.31 0.05 81 1012.7
20260508114006 53 327 5.0 8.0 0.04 0.31 0.05 82 1012.8
20260508113006 53 342 4.0 6.0 0.05 0.31 0.05 85 1012.6
20260508112507 52 330 5.0 7.0 0.05 0.31 0.05 87 1012.7
20260508111006 52 310 5.0 8.0 0.05 0.31 0.05 86 1013.2
20260508110507 52 301 5.0 8.0 0.05 0.31 0.05 88 1013.2
20260508110007 52 283 6.0 9.0 0.04 0.30 0.04 86 1013.2
20260508105506 52 281 6.0 12.0 0.03 0.29 0.03 86 1013.3
20260508105006 53 282 5.0 9.0 0.02 0.28 0.02 85 1013.1
20260508104506 53 308 7.0 9.0 0.02 0.28 0.02 83 1013.1
20260508104006 54 268 5.0 9.0 0.01 0.27 0.01 81 1013.2
20260508103506 55 237 4.0 7.0 0.00 0.26 0.00 78 1013.1
20260508103011 55 239 3.0 5.0 0.00 0.26 0.00 78 1013.1
20260508102507 55 206 4.0 6.0 0.00 0.26 0.00 76 1013.0
20260508102008 56 182 3.0 6.0 0.00 0.26 0.00 74 1012.9
20260508101508 56 192 2.0 5.0 0.00 0.26 0.00 74 1012.9
20260508101008 55 152 3.0 5.0 0.00 0.26 0.00 74 1012.9
20260508100509 55 215 4.0 6.0 0.00 0.26 0.00 75 1012.9
20260508100008 55 148 5.0 8.0 0.00 0.26 0.00 75 1012.8
20260508095508 55 130 3.0 7.0 0.00 0.26 0.00 75 1012.8
20260508095008 55 93 3.0 5.0 0.00 0.26 0.00 76 1012.8
20260508094508 54 109 3.0 7.0 0.00 0.26 0.00 75 1012.7
20260508094008 55 138 3.0 5.0 0.00 0.26 0.00 75 1012.7
20260508093508 54 89 1.0 5.0 0.00 0.26 0.00 76 1012.7
20260508093008 54 133 2.0 3.0 0.00 0.26 0.00 75 1012.9
20260508092508 54 109 0.0 0.0 0.00 0.26 0.00 76 1012.9
20260508092008 54 109 0.0 3.0 0.00 0.26 0.00 76 1012.8
20260508091508 54 148 1.0 3.0 0.00 0.26 0.00 78 1012.7
20260508090509 53 110 2.0 6.0 0.00 0.26 0.00 78 1012.8
20260508090008 53 115 4.0 8.0 0.00 0.26 0.00 77 1013.0
20260508085508 53 125 4.0 8.0 0.00 0.26 0.00 78 1012.9
20260508085008 53 100 3.0 8.0 0.00 0.26 0.00 78 1012.7
20260508084508 53 84 5.0 7.0 0.00 0.26 0.00 78 1012.7
20260508084008 52 101 5.0 8.0 0.00 0.26 0.00 78 1012.6
20260508083509 52 66 5.0 8.0 0.00 0.26 0.00 78 1012.5
20260508083008 53 85 6.0 9.0 0.00 0.26 0.00 77 1012.5
20260508082008 52 74 3.0 7.0 0.00 0.26 0.00 79 1012.6
20260508081008 52 82 5.0 7.0 0.00 0.26 0.00 81 1012.6
20260508080008 51 68 3.0 5.0 0.00 0.26 0.00 82 1012.7
20260508075508 51 66 3.0 6.0 0.00 0.26 0.00 82 1012.8
20260508075008 51 70 2.0 7.0 0.00 0.26 0.00 82 1012.8
20260508074008 50 45 1.0 3.0 0.00 0.26 0.00 85 1012.8
20260508073508 50 54 2.0 5.0 0.00 0.26 0.00 85 1012.7
20260508073008 49 72 3.0 6.0 0.00 0.26 0.00 85 1012.7
20260508072507 49 47 0.0 3.0 0.00 0.26 0.00 86 1012.7
20260508072007 49 44 1.0 3.0 0.00 0.26 0.00 86 1012.6
20260508071508 49 18 2.0 3.0 0.00 0.26 0.00 86 1012.5
20260508071008 49 50 1.0 6.0 0.00 0.26 0.00 86 1012.2
20260508070508 49 40 2.0 6.0 0.00 0.26 0.00 86 1012.2
20260508070008 49 52 3.0 5.0 0.00 0.26 0.00 85 1012.5
20260508065008 48 54 2.0 6.0 0.00 0.26 0.00 85 1012.4
20260508064008 48 56 2.0 5.0 0.00 0.26 0.00 86 1012.3
20260508063508 48 55 0.0 2.0 0.00 0.26 0.00 86 1012.4
20260508063008 48 45 0.0 3.0 0.00 0.26 0.00 86 1012.4
20260508062507 48 11 2.0 5.0 0.00 0.26 0.00 85 1012.3
20260508062007 48 46 4.0 9.0 0.00 0.26 0.00 85 1012.2
20260508061509 48 52 4.0 8.0 0.00 0.26 0.00 86 1012.3
20260508061008 48 53 4.0 8.0 0.00 0.26 0.00 87 1012.2
20260508060508 48 34 3.0 5.0 0.00 0.26 0.00 87 1012.2
20260508060007 48 17 3.0 5.0 0.00 0.26 0.00 87 1012.3
20260508055507 47 24 5.0 8.0 0.00 0.26 0.00 87 1012.2
20260508055007 47 25 4.0 7.0 0.00 0.26 0.00 87 1012.5
20260508054008 47 25 5.0 8.0 0.00 0.26 0.00 87 1012.4
20260508053508 47 9 4.0 7.0 0.00 0.26 0.00 88 1012.4
20260508053008 47 23 4.0 7.0 0.00 0.26 0.00 88 1012.3
20260508052508 47 24 5.0 8.0 0.00 0.26 0.00 88 1012.3
20260508052008 47 24 5.0 9.0 0.00 0.26 0.00 88 1012.2
20260508051508 47 26 5.0 7.0 0.00 0.26 0.00 88 1012.3
20260508051008 47 21 5.0 8.0 0.00 0.26 0.00 89 1012.3
20260508050508 46 22 3.0 7.0 0.00 0.26 0.00 89 1012.3
20260508050008 46 8 3.0 5.0 0.00 0.26 0.00 90 1012.4
20260508045508 46 17 3.0 7.0 0.00 0.26 0.00 90 1012.4
20260508044508 45 12 3.0 5.0 0.00 0.26 0.00 90 1012.2
20260508044007 45 2 2.0 3.0 0.00 0.26 0.00 90 1012.2
20260508043508 45 355 0.0 3.0 0.00 0.26 0.00 89 1012.2
20260508043008 45 358 3.0 5.0 0.00 0.26 0.00 89 1012.1
20260508042508 45 5 2.0 3.0 0.00 0.26 0.00 89 1012.1
20260508042008 46 22 3.0 5.0 0.00 0.26 0.00 89 1012.1
20260508041508 46 20 3.0 7.0 0.00 0.26 0.00 89 1012.1
20260508041007 46 13 3.0 5.0 0.00 0.26 0.00 89 1012.0
20260508040507 46 19 3.0 5.0 0.00 0.26 0.00 89 1011.9
20260508040008 46 20 3.0 6.0 0.00 0.26 0.00 89 1011.9
20260508035507 46 16 0.0 3.0 0.00 0.26 0.00 90 1011.8
20260508035007 46 14 0.0 3.0 0.00 0.26 0.00 90 1011.8
20260508034507 46 14 3.0 3.0 0.00 0.26 0.00 89 1011.9
20260508033507 46 2 3.0 5.0 0.00 0.26 0.00 89 1011.9
20260508033007 46 16 4.0 6.0 0.00 0.26 0.00 88 1011.9
20260508032507 46 358 3.0 3.0 0.00 0.26 0.00 88 1011.9
20260508032008 47 0 2.0 7.0 0.00 0.26 0.00 88 1011.9
20260508031008 47 22 5.0 8.0 0.00 0.26 0.00 88 1011.7
20260508030507 47 25 5.0 9.0 0.00 0.26 0.00 88 1011.7
20260508030008 47 15 5.0 8.0 0.00 0.26 0.00 88 1011.7
20260508025507 46 25 5.0 9.0 0.00 0.26 0.00 88 1011.7
20260508025008 47 13 5.0 9.0 0.00 0.26 0.00 88 1011.7
20260508024508 47 15 6.0 9.0 0.00 0.26 0.00 88 1011.7
20260508024007 47 21 6.0 10.0 0.00 0.26 0.00 88 1011.7
20260508023508 47 25 5.0 9.0 0.00 0.26 0.00 88 1011.8
20260508023008 47 25 7.0 10.0 0.00 0.26 0.00 88 1011.8
20260508022507 46 32 6.0 9.0 0.00 0.26 0.00 89 1011.9
20260508022008 46 26 5.0 9.0 0.00 0.26 0.00 89 1011.9
20260508021507 46 22 3.0 8.0 0.00 0.26 0.00 89 1012.0
20260508021008 46 19 4.0 8.0 0.00 0.26 0.00 89 1012.0
20260508020508 46 23 4.0 7.0 0.00 0.26 0.00 89 1012.1
20260508020008 46 24 4.0 8.0 0.00 0.26 0.00 89 1012.2
20260508015508 46 31 5.0 8.0 0.00 0.26 0.00 90 1012.2
20260508015007 46 25 3.0 5.0 0.00 0.26 0.00 90 1012.3
20260508014507 46 15 3.0 5.0 0.00 0.26 0.00 90 1012.3
20260508014008 46 6 3.0 5.0 0.00 0.26 0.00 89 1012.4
20260508013508 46 2 3.0 5.0 0.00 0.26 0.00 89 1012.4
20260508013009 46 5 2.0 3.0 0.00 0.26 0.00 89 1012.5
20260508012508 46 22 3.0 5.0 0.00 0.26 0.00 90 1012.4
20260508012007 46 28 3.0 5.0 0.00 0.26 0.00 90 1012.5
20260508011507 46 13 3.0 5.0 0.00 0.26 0.00 90 1012.7
20260508011008 46 20 3.0 3.0 0.00 0.26 0.00 90 1012.8
20260508005519 46 26 2.0 3.0 0.00 0.26 0.00 90 1012.9
20260508005019 46 26 2.0 5.0 0.00 0.26 0.00 90 1012.9
20260508004519 46 17 3.0 5.0 0.00 0.26 0.00 90 1013.0
20260508004018 46 17 2.0 5.0 0.00 0.26 0.00 90 1013.0
20260508003518 46 23 2.0 3.0 0.00 0.26 0.00 90 1013.2
20260508003018 46 17 3.0 3.0 0.00 0.26 0.00 90 1013.2
20260508002518 46 8 3.0 3.0 0.00 0.26 0.00 90 1013.2
20260508002018 46 15 2.0 3.0 0.00 0.26 0.00 90 1013.3
20260508001518 46 15 2.0 3.0 0.00 0.26 0.00 90 1013.3
20260508001018 46 13 2.0 3.0 0.00 0.26 0.00 90 1013.3
20260508000518 46 27 2.0 3.0 0.00 0.26 0.00 90 1013.3
20260508000018 46 27 2.0 3.0 0.00 0.26 0.00 90 1013.3
20260507235521 46 27 1.0 3.0 0.00 0.26 0.00 90 1013.2
20260507235018 46 26 2.0 5.0 0.00 0.26 0.00 90 1013.2
20260507234518 46 25 2.0 3.0 0.00 0.26 0.00 90 1013.3
20260507234018 46 25 3.0 3.0 0.00 0.26 0.00 89 1013.4
20260507233519 46 25 2.0 3.0 0.00 0.26 0.00 89 1013.4
20260507232507 46 25 2.0 3.0 0.00 0.26 0.00 89 1013.5
20260507232007 46 13 3.0 5.0 0.00 0.26 0.00 89 1013.4
20260507231518 46 29 4.0 5.0 0.00 0.26 0.00 88 1013.4
20260507231018 47 29 3.0 3.0 0.00 0.26 0.00 87 1013.4
20260507230018 48 29 0.0 0.0 0.00 0.26 0.00 88 1013.4
20260507225518 48 29 0.0 0.0 0.00 0.26 0.00 88 1013.4
20260507225018 47 29 0.0 0.0 0.00 0.26 0.00 89 1013.5
20260507224518 47 29 0.0 0.0 0.00 0.26 0.00 88 1013.5
20260507224018 48 29 0.0 0.0 0.00 0.26 0.00 88 1013.6
20260507223007 48 29 0.0 0.0 0.00 0.26 0.00 88 1013.6
20260507222518 48 29 0.0 0.0 0.00 0.26 0.00 88 1013.6
20260507222018 48 29 0.0 0.0 0.00 0.26 0.00 88 1013.7
20260507221518 48 29 0.0 0.0 0.00 0.26 0.00 88 1013.5
20260507221018 48 29 0.0 0.0 0.00 0.26 0.00 88 1013.6
20260507220519 48 29 0.0 0.0 0.00 0.26 0.00 88 1013.6